Location: Haliburton Scout Reserve
(45.0900°N, 78.3200°W)
Time: 18:36:11
(UTC-05:00)

IDEFIX/ARIANE 42P - Visible Passes

Search period start: 17 February 2018 00:00
Search period end: 27 February 2018 00:00
Orbit: 786 x 802 km, 98.2° (Epoch: 15 February)

Date Brightness Start Highest point End Pass type
(mag) Time Alt. Az. Time Alt. Az. Time Alt. Az.
17 Feb 3.6 04:58:56 10° NNE 05:03:58 45° E 05:08:58 10° S visible
17 Feb 3.5 06:39:01 10° N 06:43:20 26° WNW 06:47:36 10° WSW visible
18 Feb 4.6 04:31:06 10° NE 04:35:27 26° E 04:39:46 10° SSE visible
18 Feb 2.9 06:10:16 10° N 06:15:13 44° WNW 06:20:08 10° SW visible
19 Feb 5.4 04:03:56 10° NE 04:06:48 15° E 04:09:39 10° ESE visible
19 Feb 2.5 05:41:45 10° N 05:47:00 76° WNW 05:52:12 10° SSW visible
20 Feb 3.0 05:13:27 10° NNE 05:18:40 62° E 05:23:48 10° S visible
20 Feb 6.2 18:19:15 10° W 18:19:35 10° W 18:19:54 10° W visible
21 Feb 4.1 04:45:25 10° NNE 04:50:12 35° E 04:54:56 10° SSE visible
21 Feb 3.2 06:25:06 10° N 06:29:45 33° WNW 06:34:22 10° SW visible
22 Feb 5.0 04:17:49 10° NE 04:21:37 20° E 04:25:23 10° SE visible
22 Feb 2.6 05:56:27 10° N 06:01:35 57° WNW 06:06:40 10° SSW visible
23 Feb 5.6 03:51:38 10° ENE 03:52:54 11° E 03:54:10 10° E visible
23 Feb 2.6 05:28:02 10° NNE 05:33:18 84° ESE 05:38:31 10° SSW visible
24 Feb 3.6 04:59:51 10° NNE 05:04:55 47° E 05:09:55 10° S visible
25 Feb 4.6 04:31:59 10° NE 04:36:23 27° E 04:40:45 10° SSE visible
25 Feb 2.9 06:11:14 10° N 06:16:08 42° WNW 06:21:00 10° SW visible
26 Feb 5.4 04:04:45 10° NE 04:07:45 15° E 04:10:44 10° SE visible
26 Feb 2.5 05:42:41 10° N 05:47:55 73° WNW 05:53:06 10° SSW visible
